Terug naar catalogus

FENGYUN 1C DEB

ActiefPO
NORAD 31883·DEBRIS·🇨🇳 China

Gelanceerd May 10, 1999 vanaf Taiyuan Satellite Launch Center

Loading…

Volgende Passages (komende 24 uur)

TLE

VersSource: Space-Track

Epoch: Sep 14, 2026, 14:43 UTC

1 31883U 99025CKJ 26257.61358421  .00003075  00000-0  46954-3 0  9996
2 31883  99.0424 208.2247 0118254 297.1810  61.7379 14.70099888 20141

Volg FENGYUN 1C DEB in realtime met AllMySat

Download on the App Store